User: anonymous   Login
Location: ???????
(54.9996°N, 37.9529°E)
Time: 06:15:47
(UTC+00:00)
Language:

Cosmos 1633 Rocket - Orbit

View from above orbital plane
View from above orbital plane
View from above satellite
View from above satellite

Ground track
Ground track

The orbit data is extracted from the following two-line orbital elements,

1 15593U 85020B   24164.74814652  .00000695  00000-0  77523-4 0  9990
2 15593  82.5382  33.0536 0009899 241.9821 118.0395 14.85588630101899
Epoch (UTC): 12 June 2024 17:57:19
Eccentricity: 0.0009899
inclination: 82.5382°
perigee height: 605 km
apogee height: 618 km
right ascension of ascending node: 33.0536°
argument of perigee: 241.9821°
revolutions per day: 14.85588630
mean anomaly at epoch: 118.0395°
orbit number at epoch: 10189

The dashed part of the orbit path shows where the satellite is in the earth's shadow,  

DLR